Temp
-6 -6 -6 -6 -6 -6 -6 -6 -7 -7 -7 -7 -6 -6 -6 -6 -6 -6 -6 -6 -6 -6 -6 -6 -6 -7 -7 -7 -7 -7 -7 -7 -7 -7 -7 -7 -7 -7 -8 -8 -8 -8
-6 -6 -6 -6 -6 -6 -6 -6 -7 -7 -7 -7 -6 -6 -6 -6 -6 -6 -6 -6 -6 -6 -6 -6 -6 -6 -6 -7 -7 -7 -7 -7 -7 -7 -7 -7 -7 -7 -7 -7 -7 -8
-6 -6 -6 -6 -6 -6 -6 -6 -6 -7 -7 -7 -6 -6 -6 -6 -6 -6 -6 -6 -6 -6 -6 -6 -6 -6 -6 -6 -7 -7 -7 -7 -7 -7 -7 -7 -7 -7 -7 -7 -7 -7
-5 -6 -6 -6 -6 -6 -6 -6 -6 -6 -7 -7 -7 -6 -6 -6 -6 -6 -6 -6 -6 -6 -6 -6 -6 -6 -6 -6 -6 -7 -7 -7 -7 -7 -7 -7 -7 -7 -7 -7 -7 -7
-6 -6 -6 -6 -6 -6 -6 -6 -6 -6 -6 -6 -6 -6 -6 -6 -6 -6 -6 -6 -6 -6 -6 -6 -6 -6 -6 -6 -6 -6 -6 -6 -6 -7 -7 -7 -7 -7 -7 -7 -7 -7
-6 -6 -6 -6 -6 -6 -6 -6 -6 -6 -6 -6 -6 -6 -6 -6 -6 -6 -6 -6 -6 -6 -6 -6 -6 -6 -6 -6 -6 -6 -6 -6 -6 -6 -7 -7 -7 -7 -7 -7 -7 -7
-6 -6 -6 -6 -6 -6 -6 -6 -6 -6 -6 -6 -6 -6 -6 -6 -6 -6 -6 -6 -6 -6 -6 -6 -6 -6 -6 -6 -6 -6 -6 -6 -6 -6 -6 -6 -6 -7 -7 -7 -7 -7
-6 -6 -6 -6 -6 -6 -6 -6 -6 -6 -6 -6 -6 -6 -6 -6 -6 -6 -6 -6 -6 -6 -6 -6 -6 -6 -6 -6 -6 -6 -6 -6 -6 -6 -6 -6 -6 -6 -6 -7 -7 -7
-6 -6 -6 -6 -6 -6 -6 -6 -6 -6 -6 -7 -7 -7 -7 -7 -7 -7 -7 -7 -7 -7 -7 -7 -6 -6 -6 -6 -6 -6 -6 -6 -6 -6 -6 -6 -6 -6 -6 -6 -6 -6
-6 -6 -6 -6 -6 -6 -6 -6 -6 -6 -6 -7 -7 -7 -7 -7 -7 -7 -7 -7 -7 -7 -7 -7 -7 -7 -6 -6 -6 -6 -6 -6 -6 -6 -6 -6 -6 -6 -6 -6 -6 -6
-6 -6 -6 -6 -6 -6 -6 -6 -6 -6 -6 -7 -7 -7 -7 -7 -7 -7 -7 -7 -7 -7 -7 -7 -7 -7 -7 -7 -7 -7 -7 -6 -6 -6 -6 -6 -6 -6 -6 -6 -6 -6
-6 -6 -6 -6 -6 -6 -6 -6 -6 -6 -6 -6 -6 -7 -7 -7 -7 -7 -7 -7 -6 -6 -7 -7 -7 -7 -7 -7 -7 -7 -7 -6 -6 -6 -6 -6 -6 -6 -6 -6 -6 -6
-6 -6 -6 -6 -6 -6 -6 -6 -6 -6 -6 -6 -6 -6 -6 -7 -7 -7 -7 -7 -7 -6 -6 -7 -7 -7 -7 -7 -7 -7 -6 -6 -6 -6 -7 -7 -6 -6 -6 -6 -6 -6
-6 -6 -5 -5 -6 -6 -6 -6 -6 -7 -7 -6 -6 -6 -6 -6 -6 -6 -6 -6 -6 -6 -6 -6 -7 -7 -7 -7 -7 -7 -7 -7 -7 -7 -7 -7 -6 -6 -6 -6 -6 -6
-7 -6 -6 -5 -5 -5 -6 -6 -6 -6 -6 -6 -6 -6 -6 -6 -6 -6 -6 -6 -6 -6 -6 -6 -6 -6 -6 -6 -6 -7 -7 -7 -7 -7 -7 -7 -7 -6 -6 -6 -6 -6
-7 -7 -7 -6 -6 -6 -6 -6 -6 -6 -6 -6 -6 -6 -6 -6 -6 -6 -6 -6 -6 -6 -6 -6 -6 -6 -6 -6 -6 -6 -7 -7 -7 -7 -7 -7 -7 -7 -7 -7 -6 -6
-7 -7 -7 -7 -6 -6 -6 -6 -6 -6 -6 -6 -6 -6 -6 -6 -6 -6 -6 -6 -6 -6 -6 -6 -6 -6 -6 -6 -6 -6 -7 -7 -7 -7 -7 -7 -7 -7 -7 -7 -7 -7
-7 -7 -7 -7 -7 -7 -7 -7 -6 -5 -6 -6 -6 -6 -6 -6 -6 -6 -6 -6 -6 -6 -6 -6 -6 -6 -6 -6 -6 -6 -6 -6 -7 -7 -6 -6 -6 -6 -6 -7 -7 -7
-7 -7 -7 -7 -7 -7 -7 -7 -7 -6 -6 -6 -6 -6 -6 -6 -6 -6 -6 -7 -7 -6 -6 -6 -6 -6 -6 -6 -6 -6 -6 -6 -6 -6 -6 -6 -6 -6 -6 -6 -7 -7
-7 -7 -7 -7 -7 -7 -7 -7 -7 -7 -6 -6 -6 -6 -6 -6 -6 -6 -7 -7 -7 -7 -6 -6 -6 -7 -7 -7 -6 -6 -6 -6 -6 -6 -7 -7 -6 -6 -6 -6 -6 -6
-6 -7 -7 -7 -7 -7 -7 -7 -7 -7 -7 -6 -6 -6 -6 -6 -6 -6 -6 -6 -7 -7 -7 -7 -7 -7 -7 -7 -7 -7 -6 -6 -6 -6 -6 -6 -6 -6 -6 -6 -6 -6
-6 -6 -6 -7 -7 -7 -7 -7 -7 -7 -7 -7 -7 -6 -7 -7 -6 -6 -6 -6 -6 -6 -7 -7 -7 -7 -7 -7 -7 -7 -7 -6 -6 -6 -6 -6 -6 -6 -7 -7 -7 -7
-6 -6 -6 -6 -6 -7 -6 -7 -7 -7 -7 -7 -7 -6 -6 -7 -7 -6 -6 -6 -6 -6 -6 -6 -7 -6 -6 -7 -7 -7 -7 -7 -6 -6 -6 -6 -6 -6 -6 -7 -6 -6
-6 -6 -6 -6 -6 -6 -7 -7 -7 -7 -7 -7 -6 -6 -6 -7 -6 -6 -6 -7 -7 -7 -7 -7 -7 -7 -6 -7 -7 -7 -7 -7 -7 -7 -6 -6 -6 -6 -6 -6 -6 -6
-7 -6 -6 -6 -6 -6 -6 -7 -7 -7 -6 -6 -6 -6 -6 -7 -7 -6 -6 -7 -7 -8 -7 -7 -7 -7 -7 -7 -7 -7 -7 -7 -7 -7 -7 -7 -7 -6 -6 -6 -6 -6
-7 -7 -7 -7 -6 -6 -6 -6 -7 -7 -6 -6 -7 -6 -7 -7 -7 -7 -7 -7 -7 -7 -7 -7 -7 -7 -7 -7 -7 -7 -7 -7 -7 -7 -7 -7 -7 -7 -7 -7 -6 -6
Height
5930 5930 5930 5931 5931 5932 5932 5933 5933 5934 5935 5935 5936 5936 5937 5938 5938 5939 5940 5940 5941 5941 5941 5942 5942 5942 5943 5943 5943 5943 5943 5943 5943 5943 5944 5944 5944 5943 5943 5943 5944 5944
5929 5930 5930 5931 5931 5931 5932 5933 5933 5934 5934 5935 5935 5936 5936 5937 5938 5939 5939 5940 5940 5941 5941 5942 5942 5942 5943 5943 5943 5943 5944 5944 5943 5943 5943 5944 5944 5944 5944 5944 5944 5944
5928 5929 5930 5930 5931 5931 5932 5932 5933 5933 5934 5934 5935 5935 5936 5936 5937 5938 5938 5939 5940 5940 5941 5941 5941 5942 5942 5943 5943 5943 5943 5943 5943 5943 5943 5943 5944 5944 5944 5944 5944 5944
5927 5928 5929 5929 5930 5930 5931 5931 5932 5933 5933 5934 5934 5935 5935 5936 5936 5937 5937 5938 5939 5939 5940 5940 5941 5941 5941 5942 5942 5943 5943 5943 5943 5943 5943 5943 5944 5944 5944 5944 5943 5943
5926 5927 5928 5928 5929 5929 5930 5931 5931 5932 5932 5933 5934 5934 5935 5935 5936 5936 5937 5937 5938 5938 5939 5939 5940 5940 5941 5941 5942 5942 5942 5942 5942 5942 5942 5943 5943 5943 5943 5943 5943 5943
5924 5925 5926 5927 5928 5928 5929 5929 5930 5931 5932 5932 5933 5934 5934 5935 5935 5936 5936 5937 5937 5937 5938 5938 5939 5939 5940 5940 5941 5941 5942 5942 5942 5942 5942 5942 5942 5943 5943 5943 5942 5942
5922 5923 5924 5925 5926 5927 5928 5928 5929 5930 5931 5932 5932 5933 5934 5934 5935 5935 5936 5936 5936 5937 5937 5937 5938 5938 5939 5939 5940 5940 5941 5941 5941 5941 5941 5941 5942 5942 5942 5942 5942 5942
5920 5921 5922 5923 5924 5925 5926 5927 5928 5929 5929 5930 5931 5932 5932 5933 5934 5934 5935 5935 5936 5936 5937 5937 5937 5937 5938 5938 5939 5940 5940 5940 5941 5941 5941 5941 5941 5941 5941 5941 5941 5941
5918 5919 5920 5921 5922 5923 5924 5925 5926 5927 5928 5929 5930 5930 5931 5932 5933 5933 5934 5934 5935 5935 5936 5936 5936 5937 5937 5938 5938 5938 5939 5939 5940 5940 5940 5940 5940 5940 5940 5941 5941 5940
5915 5916 5918 5919 5920 5921 5922 5923 5924 5925 5926 5927 5928 5929 5929 5930 5931 5932 5932 5933 5933 5934 5935 5935 5936 5936 5936 5937 5937 5937 5937 5938 5938 5938 5939 5939 5939 5939 5939 5940 5940 5940
5912 5914 5915 5917 5918 5919 5920 5921 5922 5923 5924 5925 5926 5927 5928 5928 5929 5930 5931 5931 5932 5933 5933 5934 5934 5935 5935 5935 5935 5936 5936 5936 5937 5937 5938 5938 5938 5938 5938 5938 5938 5939
5910 5911 5912 5914 5915 5916 5917 5918 5919 5921 5922 5923 5924 5925 5926 5927 5928 5928 5929 5929 5930 5931 5932 5933 5933 5933 5934 5934 5934 5934 5935 5935 5936 5936 5937 5937 5937 5937 5937 5936 5936 5937
5909 5909 5910 5911 5912 5913 5914 5915 5916 5918 5919 5920 5921 5922 5923 5924 5925 5926 5927 5927 5928 5929 5930 5931 5931 5932 5932 5932 5932 5933 5934 5935 5935 5935 5936 5936 5936 5936 5936 5936 5936 5935
5908 5908 5908 5909 5909 5910 5911 5912 5913 5914 5915 5917 5918 5919 5920 5921 5922 5923 5924 5925 5926 5926 5927 5928 5929 5929 5929 5929 5930 5931 5932 5933 5934 5933 5933 5933 5934 5934 5935 5935 5935 5935
5905 5906 5907 5907 5908 5909 5909 5909 5910 5910 5912 5913 5914 5916 5917 5918 5919 5920 5921 5922 5923 5924 5925 5925 5926 5926 5926 5927 5928 5929 5930 5931 5931 5931 5931 5931 5931 5932 5932 5932 5933 5933
5900 5901 5903 5904 5906 5907 5908 5907 5907 5907 5908 5909 5911 5912 5914 5915 5916 5917 5918 5919 5920 5921 5922 5923 5924 5924 5924 5924 5925 5926 5927 5928 5928 5928 5928 5929 5929 5929 5929 5930 5930 5931
5897 5897 5898 5899 5901 5904 5905 5905 5904 5904 5905 5906 5908 5909 5910 5911 5912 5913 5915 5916 5917 5918 5919 5921 5921 5922 5922 5922 5923 5923 5924 5925 5925 5925 5925 5926 5927 5927 5927 5927 5928 5928
5894 5895 5895 5896 5896 5898 5900 5901 5902 5902 5902 5903 5905 5906 5907 5908 5909 5910 5912 5913 5914 5915 5916 5917 5919 5920 5920 5919 5920 5921 5921 5921 5922 5922 5922 5923 5924 5924 5924 5924 5925 5925
5889 5890 5891 5892 5892 5894 5895 5897 5899 5900 5900 5900 5902 5903 5904 5904 5906 5907 5909 5910 5910 5911 5912 5914 5916 5917 5915 5915 5916 5917 5917 5918 5918 5918 5919 5920 5921 5921 5921 5921 5921 5922
5884 5886 5887 5886 5887 5889 5891 5893 5895 5897 5897 5897 5898 5899 5900 5901 5902 5903 5905 5906 5907 5908 5909 5910 5912 5911 5910 5910 5912 5913 5914 5915 5915 5915 5916 5916 5917 5918 5918 5918 5918 5919
5880 5881 5882 5882 5883 5884 5886 5889 5891 5892 5893 5895 5896 5896 5897 5898 5898 5899 5900 5902 5902 5904 5906 5907 5907 5906 5906 5907 5908 5908 5909 5910 5911 5912 5912 5912 5913 5914 5914 5914 5914 5915
5876 5877 5877 5878 5880 5880 5881 5884 5887 5888 5889 5890 5891 5890 5891 5892 5894 5895 5897 5898 5899 5900 5902 5903 5902 5902 5903 5904 5904 5904 5905 5906 5907 5908 5908 5908 5909 5910 5910 5910 5911 5912
5872 5872 5873 5874 5875 5876 5877 5878 5880 5882 5883 5883 5883 5883 5884 5885 5887 5890 5893 5895 5896 5896 5897 5899 5899 5899 5899 5900 5900 5900 5901 5901 5901 5902 5903 5904 5905 5906 5906 5907 5907 5908
5868 5868 5869 5870 5870 5871 5873 5873 5874 5876 5877 5877 5877 5877 5879 5881 5883 5885 5888 5890 5890 5891 5892 5894 5895 5896 5896 5896 5896 5896 5896 5897 5897 5897 5898 5899 5900 5900 5901 5902 5902 5902
5864 5865 5866 5867 5867 5867 5868 5868 5869 5870 5870 5871 5872 5873 5875 5877 5879 5880 5882 5883 5884 5885 5886 5888 5890 5891 5891 5891 5891 5892 5892 5892 5893 5893 5894 5894 5894 5895 5896 5896 5896 5896
5861 5862 5862 5863 5864 5863 5862 5862 5863 5864 5865 5866 5868 5868 5869 5872 5874 5876 5877 5878 5879 5879 5879 5881 5884 5884 5884 5885 5886 5887 5887 5888 5888 5889 5889 5890 5890 5890 5891 5891 5891 5892
Wind_Speed
14 13 11 10 9 9 8 8 7 7 6 6 6 7 7 7 6 6 5 5 4 4 4 4 4 3 3 3 3 3 2 2 1 1 0 1 1 2 2 3 4 4
15 14 13 12 11 10 9 9 8 8 7 7 7 8 8 7 7 7 7 6 5 5 4 4 3 3 3 2 2 2 2 2 2 1 1 1 1 2 2 3 3 4
16 15 14 13 13 12 11 10 10 9 8 8 8 8 8 8 8 8 8 8 7 7 6 6 5 5 4 4 4 3 4 4 3 3 3 3 3 3 4 4 5 5
17 16 15 14 13 13 12 12 11 10 10 10 9 9 9 9 9 9 9 9 9 8 8 7 7 7 7 7 6 6 6 6 5 5 5 5 5 5 5 5 5 5
18 17 16 15 15 14 14 13 13 12 11 11 11 11 11 10 10 10 10 10 10 10 9 9 8 8 9 8 8 8 8 7 6 6 6 6 6 6 6 6 6 6
20 18 17 17 17 16 16 16 15 14 13 12 12 12 12 11 11 11 11 11 11 11 11 10 10 9 9 9 9 9 8 8 7 6 7 7 7 7 7 7 7 7
21 20 19 18 18 18 17 17 16 16 15 14 13 13 13 13 12 12 11 11 11 11 11 11 11 11 10 10 10 9 9 9 8 7 7 8 7 7 8 8 8 8
22 22 21 20 19 19 19 18 17 17 16 16 15 15 14 14 14 13 12 12 12 12 12 12 12 11 11 11 11 10 10 10 9 9 9 9 8 8 8 8 8 8
24 23 22 22 21 21 21 20 19 18 18 17 18 17 17 16 16 15 14 14 13 13 12 12 12 11 11 11 11 12 12 11 11 11 11 10 9 9 8 8 8 8
26 25 24 24 23 22 23 22 21 20 19 20 20 20 19 19 17 16 16 16 15 14 14 13 13 12 12 11 12 12 13 13 13 13 12 12 11 10 9 9 9 9
27 27 26 25 25 25 25 24 23 22 22 22 22 21 21 20 19 18 17 17 17 16 15 14 14 13 13 13 13 14 14 14 14 14 13 13 12 12 11 11 10 10
28 28 28 27 27 27 27 27 26 25 24 24 23 22 22 22 21 20 19 19 18 17 16 15 15 15 16 16 15 15 15 15 14 13 13 14 14 14 13 13 12 11
29 30 30 30 30 30 30 29 28 27 27 26 26 25 24 24 23 22 22 21 20 19 18 17 17 17 17 17 17 16 16 15 14 13 14 15 15 15 15 14 13 12
28 30 31 31 31 32 32 31 30 30 30 29 28 28 27 26 26 25 24 24 23 22 21 20 19 19 20 20 18 17 16 15 15 15 15 16 15 15 15 15 15 15
29 30 32 33 31 31 32 33 33 32 32 31 31 30 29 28 28 28 27 26 26 25 24 23 22 22 22 21 20 18 17 17 17 18 17 17 17 16 16 16 16 17
31 32 32 32 32 31 32 34 35 34 33 33 32 31 30 30 29 29 29 28 28 27 26 25 25 24 24 24 22 21 20 20 20 20 20 19 19 18 18 18 18 18
31 33 34 34 33 33 33 34 36 36 35 33 33 32 31 30 30 29 29 29 28 27 27 27 26 26 26 25 24 23 23 22 22 23 23 22 21 20 20 19 19 19
33 33 34 36 36 35 35 36 38 38 35 34 34 33 32 31 30 29 29 29 29 28 28 27 26 26 27 28 27 26 25 25 25 26 25 24 23 23 22 21 21 21
40 38 37 38 39 38 37 38 38 37 36 35 34 34 33 33 31 30 29 29 29 29 29 27 25 27 30 30 28 28 28 27 27 27 26 26 26 25 25 24 24 23
43 43 41 41 42 41 41 40 38 37 37 35 34 34 35 35 34 33 31 30 30 30 29 28 27 29 31 31 29 30 30 29 29 28 27 27 27 27 28 27 27 26
44 43 43 44 44 44 44 42 39 39 37 33 33 34 35 36 36 36 34 33 32 31 29 28 30 31 32 32 32 32 32 31 31 30 29 29 29 29 29 28 27 26
41 42 42 42 43 44 44 43 40 39 37 34 34 36 36 37 37 37 37 36 34 32 30 30 33 34 33 33 33 33 33 33 32 31 32 32 31 30 29 28 28 28
31 35 37 39 41 42 44 45 44 43 42 40 39 40 39 38 39 38 36 36 35 34 33 33 34 34 33 33 33 33 33 33 33 32 32 32 32 31 32 32 32 32
25 28 30 32 35 37 41 45 47 46 46 45 43 44 43 40 39 38 36 36 36 35 34 33 32 33 34 34 34 33 33 33 33 33 32 32 32 32 33 33 33 33
22 23 23 25 29 32 35 42 47 48 48 46 45 46 45 42 39 39 37 38 38 36 36 34 32 32 35 37 36 34 34 34 33 32 32 31 32 32 32 32 32 31
19 19 19 21 24 27 30 36 43 47 48 46 44 46 47 45 42 39 38 39 39 38 38 37 36 36 38 38 38 37 35 35 34 33 32 32 32 32 32 31 32 31
Wind_Direction
205 204 205 208 208 202 194 187 182 177 174 173 175 176 179 181 176 174 180 182 179 172 166 163 157 155 149 141 139 143 157 189 217 240 306 353 354 1 355 354 358 360
214 211 211 212 210 205 198 193 190 187 184 185 186 184 186 192 191 188 193 201 203 201 200 200 194 191 190 186 182 177 190 212 228 249 281 312 325 330 329 331 333 335
221 217 215 214 211 208 203 200 199 196 194 198 197 193 192 198 202 202 204 210 215 217 219 224 226 225 225 225 226 226 231 236 242 251 260 268 277 287 295 301 305 308
228 224 220 217 213 211 209 207 207 206 205 206 205 202 201 202 205 209 212 215 219 223 226 229 233 235 237 237 238 238 238 239 243 248 253 256 260 266 273 284 291 295
230 228 225 221 216 215 214 213 213 213 214 214 212 211 210 209 209 213 216 218 221 224 227 230 231 233 236 239 241 241 239 239 242 246 249 250 252 255 258 266 274 280
228 227 225 223 220 219 218 217 217 217 218 219 219 219 219 218 216 216 218 220 221 224 226 229 231 232 235 238 240 240 239 239 240 242 245 247 249 250 250 251 255 260
227 227 226 225 224 224 223 222 220 219 219 221 222 224 224 224 224 223 221 220 221 224 226 228 230 232 234 237 239 240 239 238 237 236 240 244 246 246 246 246 245 245
227 227 227 227 227 227 228 228 225 223 222 223 225 228 228 227 227 227 224 221 220 222 225 228 231 231 232 235 238 239 239 237 234 233 235 238 241 242 243 245 246 246
230 229 229 229 230 231 231 231 230 228 227 228 228 230 232 232 230 229 228 226 223 223 224 228 231 233 233 234 236 239 240 237 234 233 234 235 236 239 241 244 250 255
231 232 232 231 232 233 234 234 233 232 231 232 233 233 234 235 235 234 233 232 230 228 228 229 231 235 236 236 237 239 240 239 238 237 237 237 237 239 242 246 252 260
231 232 234 235 235 235 236 237 236 236 235 236 237 238 238 238 239 239 239 239 239 237 235 234 234 235 237 238 238 240 241 241 241 241 242 243 243 241 241 243 247 253
232 232 232 233 235 236 237 239 239 239 239 239 240 241 242 242 242 242 242 243 244 245 244 243 241 240 239 239 240 242 245 247 246 247 248 249 248 246 244 242 241 244
238 237 235 233 233 235 236 238 240 240 240 241 241 241 242 243 244 244 244 244 245 246 247 247 247 247 247 245 243 243 247 251 253 252 250 250 251 253 254 252 249 248
242 243 243 240 237 236 236 236 237 239 240 240 241 241 241 242 243 244 245 245 246 246 247 248 248 250 251 252 251 249 250 252 252 249 248 247 247 249 254 258 259 258
239 242 246 247 244 242 241 240 237 237 238 239 240 240 242 242 244 246 247 248 248 249 248 249 249 249 251 252 253 252 252 252 250 249 248 246 245 245 247 253 259 263
237 235 240 244 245 244 245 246 243 240 239 240 241 241 242 243 245 246 248 250 251 253 253 253 253 252 252 252 252 251 251 251 251 252 251 249 248 248 247 249 253 259
244 240 239 239 239 241 244 247 248 246 243 242 243 242 242 243 244 246 248 250 252 254 255 256 256 256 256 255 254 253 251 251 251 252 251 249 248 250 251 251 252 255
249 249 246 241 240 241 240 241 246 249 247 244 244 245 245 244 245 247 250 251 253 253 254 256 257 259 260 258 256 255 253 251 250 251 252 251 250 251 252 252 254 256
248 249 248 245 245 244 240 239 243 247 249 248 246 245 246 246 246 246 247 250 252 252 252 252 253 255 256 255 255 255 254 253 251 251 252 252 252 252 252 254 258 259
249 249 248 246 247 246 242 241 242 244 247 250 248 246 247 247 247 246 244 245 247 250 252 253 252 252 253 255 256 256 256 255 254 253 253 252 251 251 251 252 256 259
251 252 252 251 251 250 247 244 243 242 244 250 252 251 249 249 249 248 246 243 243 244 246 250 251 251 253 255 256 256 256 255 255 255 255 255 255 254 253 254 259 262
252 254 255 254 254 254 251 248 245 242 243 247 248 247 246 246 246 247 248 248 247 245 242 242 246 248 250 253 254 255 256 256 255 254 253 254 255 255 255 258 261 261
255 255 258 258 255 252 251 251 250 247 246 246 245 244 243 243 242 243 247 250 252 252 249 246 247 248 249 250 252 254 255 256 255 254 254 254 254 252 252 253 254 253
261 260 262 264 260 253 250 251 252 251 249 246 246 247 247 247 245 243 244 246 248 250 252 251 251 252 253 252 251 252 254 254 254 255 256 256 256 254 253 253 253 253
264 265 266 267 266 262 256 250 248 249 249 246 247 250 251 250 249 247 244 243 243 245 247 247 245 247 251 251 250 250 251 252 253 255 256 256 257 257 257 258 257 257
259 261 261 263 266 268 264 254 246 245 248 248 250 252 251 251 251 251 248 245 244 244 245 243 240 239 243 246 246 247 249 250 250 252 253 253 254 256 257 259 260 260